Content
SEND FEEDBACK

Daily
Averages
Monthly
Summary
French Polynesia

PAPEETE, FRENCH POLYNESIA


Home > Oceania > French Polynesia
Elevation: 7 feet     Latitude: 17 33S     Longitude: 149 36W

WEATHER
 
SELECT A DAY
Number of Records: 207,916;   Date Range: 6/30/96 - 7/11/14
 
SHARE

PRINT THIS DATA

[ ← Previous Day ]
WEATHER ALMANAC - SEPTEMBER 8, 2013
[ Next Day → ]
[ °C ]   °F
Weather ElementAverageHighLow
Temperature78.2 °F84.2 °F (12:00 pm)71.6 °F (3:00 am)
Dewpoint69.7 °F71.6 °F (9:30 am)68 °F (1:00 am)
Humidity74.6 %88 % (12:30 am)58 % (11:00 am)
Barometer30.02 in30.06 in (8:00 am)29.98 in (2:00 am)
Wind Speed6 mph29.1 mph (2:00 pm)
Weather ElementAverage
Visibility8.4 mi
Wind DirectionE (85.4 °)

Weather ElementTotal
Precipitation---
Cooling Degree Days12.9 (Base 65)
Growing Degree Days27.9 (Base 50)
Averaged from 54 records on September 8, 2013
WEATHER CONDITIONS BREAKOUT
WIND DIRECTION BREAKOUT
WEATHER BY HOUR - SEPTEMBER 8, 2013
[ °C ]   °F
Local TimeTemperatureDewpointHumidityBarometerVisibilityWind DirectionWind SpeedGust SpeedPrecipitationEventsConditions
12:30 AM73.4 °F69.8 °F88 %30.01 in6.2 miCalmPartly Cloudy
1:00 AM73.4 °F68.0 °F83 %30.01 in6.2 miCalmPartly Cloudy
1:30 AM73.4 °F68.0 °F83 %30.01 in6.2 miCalmPartly Cloudy
2:00 AM73.0 °F68.0 °F81 %30.00 in12.0 miEast (100°)4.5 mphScattered Clouds
2:00 AM73.4 °F68.0 °F83 %29.98 in6.2 miEast (100°)2.3 mphPartly Cloudy
2:30 AM73.4 °F68.0 °F83 %29.98 in6.2 miESE (120°)2.3 mphPartly Cloudy
3:00 AM71.6 °F68.0 °F88 %29.98 in6.2 miESE (110°)3.5 mphPartly Cloudy
3:30 AM73.4 °F68.0 °F83 %29.98 in6.2 miESE (120°)2.3 mph
4:00 AM73.4 °F68.0 °F83 %29.98 in6.2 miESE (110°)2.3 mph
4:30 AM71.6 °F68.0 °F88 %29.98 in6.2 miESE (110°)3.5 mph
5:00 AM72.0 °F68.0 °F83 %30.00 in37.0 miESE (110°)3.5 mphClear
5:00 AM71.6 °F68.0 °F88 %29.98 in6.2 miESE (110°)3.5 mphPartly Cloudy
5:30 AM71.6 °F68.0 °F88 %30.01 in6.2 miEast (80°)3.5 mphPartly Cloudy
6:00 AM71.6 °F68.0 °F88 %30.01 in6.2 miEast (80°)3.5 mphPartly Cloudy
6:30 AM71.6 °F68.0 °F88 %30.04 in6.2 miEast (100°)3.5 mphPartly Cloudy
7:00 AM75.2 °F69.8 °F83 %30.04 in6.2 miVariable2.3 mphPartly Cloudy
7:30 AM78.8 °F68.0 °F69 %30.04 in6.2 miCalmPartly Cloudy
8:00 AM80.0 °F69.0 °F61 %30.06 in16.0 miNNE (20°)6.7 mphPartly Cloudy
8:00 AM80.6 °F68.0 °F65 %30.04 in6.2 miVariable3.5 mphPartly Cloudy
8:30 AM80.6 °F69.8 °F70 %30.06 in6.2 miVariable3.5 mphPartly Cloudy
9:00 AM80.6 °F69.8 °F70 %30.06 in6.2 miWest (270°)3.5 mphPartly Cloudy
9:30 AM82.4 °F71.6 °F70 %30.06 in6.2 miWSW (240°)4.6 mphPartly Cloudy
10:00 AM82.4 °F69.8 °F66 %30.06 in6.2 miWSW (250°)4.6 mphPartly Cloudy
10:30 AM82.4 °F69.8 °F66 %30.06 in6.2 miWest (260°)3.5 mphPartly Cloudy
11:00 AM83.0 °F71.0 °F58 %30.06 in16.0 miNNW (330°)6.7 mphPartly Cloudy
11:00 AM82.4 °F69.8 °F66 %30.04 in6.2 miNNW (330°)3.5 mphScattered Clouds
11:30 AM82.4 °F69.8 °F66 %30.04 in6.2 miNNW (340°)4.6 mphScattered Clouds
12:00 PM84.2 °F71.6 °F66 %30.01 in6.2 miNNE (20°)9.2 mphScattered Clouds
12:30 PM84.2 °F71.6 °F66 %30.01 in6.2 miNNE (30°)12.7 mphScattered Clouds
1:00 PM84.2 °F71.6 °F66 %29.98 in6.2 miNE (50°)12.7 mphPartly Cloudy
1:30 PM84.2 °F71.6 °F66 %29.98 in6.2 miNE (40°)15.0 mphPartly Cloudy
2:00 PM83.0 °F71.0 °F60 %29.99 in16.0 miNE (40°)29.1 mphPartly Cloudy
2:00 PM84.2 °F71.6 °F66 %29.98 in6.2 miNE (40°)15.0 mphScattered Clouds
2:30 PM82.4 °F71.6 °F70 %29.98 in6.2 miNNE (20°)11.5 mphScattered Clouds
3:00 PM82.4 °F71.6 °F70 %29.98 in6.2 miNNE (20°)10.4 mphScattered Clouds
3:30 PM82.4 °F71.6 °F70 %29.98 in6.2 miNNE (30°)10.4 mphScattered Clouds
4:00 PM80.6 °F71.6 °F74 %29.98 in6.2 miNNE (20°)8.1 mphScattered Clouds
5:00 PM81.0 °F71.0 °F65 %30.01 in16.0 miNNE (30°)9.2 mphPartly Cloudy
5:00 PM80.6 °F71.6 °F74 %30.01 in6.2 miNNE (30°)9.2 mphScattered Clouds
5:30 PM80.6 °F71.6 °F74 %30.01 in6.2 miENE (60°)9.2 mphScattered Clouds
6:00 PM78.8 °F69.8 °F74 %30.01 in6.2 miENE (60°)8.1 mphScattered Clouds
6:30 PM78.8 °F69.8 °F74 %30.01 in6.2 miNE (50°)6.9 mphPartly Cloudy
7:00 PM78.8 °F69.8 °F74 %30.04 in6.2 miENE (70°)4.6 mphPartly Cloudy
7:30 PM78.8 °F69.8 °F74 %30.04 in6.2 miVariable1.2 mphPartly Cloudy
8:00 PM78.0 °F70.0 °F70 %30.06 in37.0 miNNE (20°)4.5 mphClear
8:04 PM78.8 °F69.8 °F74 %30.04 in6.2 miVariable2.3 mphPartly Cloudy
8:30 PM78.8 °F69.8 °F74 %30.06 in6.2 miVariable2.3 mphScattered Clouds
9:00 PM78.8 °F71.6 °F78 %30.06 in6.2 miVariable3.5 mphScattered Clouds
9:30 PM78.8 °F69.8 °F74 %30.06 in6.2 miSouth (190°)10.4 mphPartly Cloudy
10:00 PM78.8 °F71.6 °F78 %30.06 in6.2 miSSW (210°)9.2 mphPartly Cloudy
10:30 PM77.0 °F69.8 °F78 %30.06 in6.2 miEast (80°)4.6 mphPartly Cloudy
11:00 PM75.0 °F68.0 °F74 %30.06 in16.0 miENE (70°)5.8 mphPartly Cloudy
11:00 PM75.2 °F68.0 °F78 %30.06 in6.2 miENE (70°)5.8 mphPartly Cloudy
11:30 PM75.2 °F68.0 °F78 %30.04 in6.2 miENE (70°)5.8 mphPartly Cloudy
Hourly data recorded from NTAA, located miles away from Papeete, French Polynesia







STORIES FROM OUR PARTNERS